Temperature
18 18 18 17 17 17 17 17 17 16 16 16 16 15 15 15 15 15 15 14 14 14 14 14 14 14 14 14 14 14 14 13 13 13 13 13 13 13 13 13 13 13 13
18 18 18 18 17 17 17 17 17 16 16 16 16 15 15 15 15 15 15 14 14 14 14 14 14 14 14 14 14 13 13 13 13 13 13 13 13 13 13 13 13 13 13
18 18 18 18 17 17 17 17 17 16 16 16 16 15 15 15 15 15 14 14 14 14 14 14 14 14 14 14 13 13 13 13 13 13 12 12 12 12 13 13 13 13 13
18 18 18 18 18 17 17 17 16 16 16 16 16 15 15 15 15 15 14 14 14 14 14 14 13 13 13 13 13 13 13 13 12 12 12 12 12 12 12 12 12 12 12
18 18 18 18 18 17 17 17 16 16 16 16 15 15 15 15 15 14 14 14 14 14 14 13 13 13 13 13 13 13 13 12 12 12 12 12 12 12 12 12 12 12 12
19 18 18 18 17 17 17 17 16 16 16 16 15 15 15 15 14 14 14 14 14 14 13 13 13 13 13 13 13 12 12 12 12 12 12 12 11 11 11 11 11 11 11
19 18 18 18 17 17 17 16 16 16 16 15 15 15 15 15 14 14 14 14 13 13 13 13 13 13 13 12 12 12 12 12 12 11 11 11 11 11 11 10 10 10 10
19 18 18 18 17 17 17 16 16 16 16 15 15 15 15 14 14 14 14 13 13 13 13 13 13 13 12 12 12 12 12 12 11 11 11 11 10 10 10 10 10 10 10
19 18 18 18 17 17 17 16 16 16 16 15 15 15 14 14 14 14 13 13 13 13 13 13 12 12 12 12 12 12 12 11 11 11 11 10 10 10 10 10 10 9 9
19 19 18 18 17 17 17 16 16 16 15 15 15 14 14 14 14 13 13 13 13 13 12 12 12 12 12 12 11 11 11 11 11 11 11 10 10 10 10 9 9 9 8
19 19 18 18 17 17 17 16 16 15 15 15 14 14 14 14 13 13 13 13 13 12 12 12 12 12 11 11 11 11 11 11 10 10 10 10 10 10 9 9 9 8 8
19 18 18 18 17 17 16 16 15 15 15 14 14 14 14 13 13 13 13 13 12 12 12 12 11 11 11 11 11 11 10 10 10 10 10 10 9 9 9 9 8 8 8
18 18 18 17 17 16 16 16 15 15 15 14 14 14 14 13 13 13 13 12 12 12 12 11 11 11 11 11 10 10 10 10 10 9 9 9 9 8 8 8 8 8 7
18 18 17 17 17 16 16 15 15 15 15 14 14 14 14 13 13 13 12 12 12 11 11 11 11 11 10 10 10 10 10 9 9 9 9 8 8 8 8 7 7 7 7
18 18 17 17 17 16 16 16 15 15 15 15 15 14 14 14 13 13 12 12 12 11 11 11 11 10 10 10 10 10 9 9 9 9 8 8 8 8 7 7 7 6 6
18 18 17 17 16 16 16 15 15 15 14 14 14 13 13 13 13 12 12 12 11 11 11 10 10 10 10 10 9 9 9 9 8 8 8 7 7 7 7 7 6 6 6
18 18 17 17 16 16 16 15 15 14 14 14 13 13 13 13 12 12 12 11 11 10 10 10 10 10 9 9 9 9 8 8 8 7 7 7 7 6 6 6 5 5 5
18 17 17 17 16 16 15 15 15 15 14 14 13 13 13 12 12 12 11 11 10 10 10 10 10 9 9 9 8 8 8 8 7 7 7 6 6 6 5 5 5 5 4
17 17 17 16 16 16 15 15 14 14 14 14 13 13 12 12 11 11 11 10 10 10 10 10 9 9 9 8 8 8 7 7 7 6 6 6 6 5 5 5 4 4 4
17 17 16 16 15 15 15 14 14 14 13 13 13 13 12 12 11 11 11 10 10 10 10 9 9 9 8 8 8 7 7 7 6 6 6 5 5 5 4 4 4 3 3
16 16 16 15 15 15 14 14 14 13 13 13 13 12 12 11 11 11 10 10 10 10 9 9 9 8 8 8 7 7 6 6 6 5 5 5 4 4 4 3 3 3 3
16 16 15 15 15 14 14 14 13 13 13 12 12 12 11 11 11 10 10 10 10 9 9 9 8 8 8 7 7 6 6 6 5 5 5 4 4 4 3 3 3 2 2
15 15 15 15 14 14 13 13 13 12 12 12 11 11 11 10 10 10 10 9 9 9 8 8 8 7 7 7 6 6 5 5 5 4 4 4 3 3 3 2 2 2 1
14 14 14 14 13 13 13 12 12 12 11 11 11 10 10 10 10 9 9 9 8 8 8 7 7 7 6 6 6 5 5 4 4 4 4 3 3 2 2 2 1 1 1
14 13 13 13 13 12 12 12 11 11 11 10 10 10 10 9 9 9 8 8 8 7 7 7 6 6 6 5 5 5 4 4 4 3 3 3 2 2 2 1 1 1 0
13 13 12 12 12 11 11 11 10 10 10 10 9 9 9 8 8 8 8 7 7 7 6 6 6 5 5 5 4 4 4 3 3 3 2 2 2 1 1 1 0 0 -0
Wind_Speed
7 6 6 6 5 6 6 6 5 4 5 5 5 5 5 5 5 6 6 6 7 6 5 6 6 5 5 5 4 4 4 3 2 2 2 3 4 5 7 9 9 9 9
8 7 7 6 6 6 6 5 5 5 5 5 5 5 5 4 4 5 6 6 6 6 5 6 5 5 6 5 4 5 4 3 2 2 3 4 4 4 5 5 8 9 9
8 8 7 7 7 6 5 5 5 6 5 5 5 6 5 4 4 4 5 5 5 5 4 5 4 5 5 4 5 4 3 4 3 2 2 3 3 4 5 5 6 6 9
9 9 8 8 7 7 6 6 6 6 6 6 5 5 5 4 4 4 5 5 5 4 4 4 4 4 4 3 4 4 3 4 4 3 2 3 3 4 4 4 5 5 5
10 9 9 8 7 7 7 6 6 6 6 6 6 5 4 4 4 5 6 6 5 5 4 4 4 5 5 4 4 3 3 3 3 3 2 3 3 4 4 3 4 5 4
11 10 8 8 8 7 7 7 7 6 6 6 6 6 5 3 6 8 7 6 5 5 4 3 3 5 6 8 8 6 5 3 2 2 1 2 3 3 3 3 3 4 4
11 10 9 9 8 8 8 8 7 6 6 6 6 6 5 4 7 9 9 6 5 4 4 3 3 4 5 4 6 7 7 6 3 2 1 1 2 3 2 2 2 2 3
11 10 10 9 9 8 8 8 6 5 6 6 5 6 5 4 7 8 9 6 5 3 3 3 3 2 2 3 3 4 4 4 3 1 1 2 3 3 2 2 3 3 4
12 12 11 11 10 9 9 8 6 6 5 5 5 6 5 4 6 8 9 5 4 2 1 1 3 2 2 4 4 3 4 5 5 5 5 5 6 6 3 1 3 3 4
14 12 11 11 11 11 10 7 5 6 6 6 5 4 5 4 5 8 8 4 4 2 2 2 1 1 1 3 3 2 2 4 4 6 7 8 8 8 6 1 1 1 2
11 11 10 10 10 10 8 6 6 6 6 6 5 3 3 4 5 6 7 4 4 3 1 0 1 1 1 1 2 1 2 2 2 3 4 5 5 5 5 4 3 2 2
11 11 11 10 9 9 8 7 7 7 7 6 5 3 1 2 3 5 6 6 5 4 2 2 2 2 2 2 1 3 3 3 2 3 3 4 4 4 4 5 6 6 6
12 11 10 10 8 8 9 8 6 6 6 5 5 4 3 2 2 4 5 6 6 3 3 3 3 2 2 2 4 5 3 1 1 2 3 4 3 4 4 5 6 6 7
13 11 10 10 9 8 7 7 7 7 7 6 6 5 4 3 3 2 2 2 3 3 2 2 2 2 2 3 4 3 2 2 1 2 3 4 3 3 3 3 3 4 4
13 11 10 9 10 8 7 7 8 7 9 9 7 7 6 6 7 8 6 4 4 4 2 0 1 1 2 2 3 3 3 2 2 2 3 3 4 3 4 3 2 2 3
12 11 9 8 8 7 7 4 4 5 8 10 10 9 7 8 8 9 9 8 7 6 4 1 2 2 3 3 3 3 3 3 3 3 3 3 4 4 5 4 3 3 4
12 11 9 9 9 8 8 7 5 2 4 7 9 11 9 9 9 10 9 8 6 6 3 3 4 4 4 4 4 4 4 4 3 3 3 4 4 4 4 4 4 4 5
11 12 11 9 9 9 8 8 7 7 5 4 5 8 9 10 10 10 9 6 2 3 3 4 5 5 4 4 4 4 4 4 3 3 3 4 4 4 4 5 5 5 6
10 8 8 8 8 8 7 7 6 7 5 4 3 3 6 7 7 7 7 5 5 5 5 5 5 5 5 4 4 4 4 4 4 3 3 4 4 4 4 5 5 8 7
8 11 10 8 7 7 7 7 6 6 6 5 5 5 4 4 3 4 5 5 5 6 6 6 5 5 5 5 4 4 4 4 4 4 4 4 4 4 5 6 6 6 6
7 8 11 8 7 7 7 7 7 6 6 6 6 6 9 6 6 6 6 6 7 7 6 6 5 5 5 4 4 4 5 4 4 4 4 5 4 4 5 5 6 7 7
6 6 6 7 6 6 7 6 6 6 7 6 4 4 9 5 5 5 5 6 6 6 5 5 5 5 5 5 5 5 5 5 5 4 5 5 5 5 5 5 6 6 7
6 6 5 5 5 7 6 5 5 6 5 5 5 4 4 5 5 5 5 5 4 4 4 4 4 4 4 5 5 5 5 5 5 5 5 5 5 5 5 6 7 8 8
6 6 5 5 4 5 5 5 5 5 5 5 4 4 4 5 5 5 5 4 3 3 3 4 5 5 6 5 6 7 8 8 8 6 6 5 6 6 6 6 8 9 9
5 5 5 5 5 5 5 4 4 4 4 4 4 4 4 4 4 4 4 4 4 4 4 5 4 5 6 7 7 7 9 10 10 8 7 5 6 7 7 8 8 9 9
5 5 5 4 4 4 4 4 4 4 4 4 3 3 4 4 4 4 4 3 4 4 4 4 5 6 7 7 8 10 10 11 11 10 8 5 6 7 7 7 9 9 10
Wind_Direction
162 153 144 147 143 135 131 136 137 131 126 124 118 106 94 82 79 81 78 76 76 64 61 68 59 54 56 45 50 59 61 85 97 328 331 340 2 359 360 7 11 12 6
162 152 152 150 143 136 136 139 136 129 127 127 123 111 104 94 84 87 91 88 87 81 70 68 57 62 55 46 50 52 50 58 93 33 345 351 358 352 354 360 7 7 6
158 154 152 153 150 148 145 140 134 129 125 120 118 117 114 107 96 93 99 94 92 93 92 88 77 76 61 47 51 50 43 45 55 68 357 343 343 354 358 356 359 357 3
159 157 159 163 161 154 145 136 132 130 127 125 121 124 123 114 104 102 101 97 91 85 87 93 90 93 89 69 58 49 53 51 46 49 17 352 344 339 6 358 349 343 342
160 163 169 165 154 144 140 136 129 127 130 130 121 113 109 110 115 116 113 109 99 85 72 71 79 89 83 79 77 70 68 62 53 47 24 6 349 351 346 332 337 327 325
165 169 165 158 152 149 145 137 129 126 123 120 122 121 115 111 121 122 121 113 108 101 88 64 63 62 63 62 64 68 72 78 78 63 25 354 313 308 314 330 338 353 329
168 167 163 159 157 156 149 139 137 136 128 124 127 123 118 118 123 121 119 117 112 111 110 95 75 62 62 55 46 45 39 40 58 134 138 270 276 282 302 325 325 313 284
169 169 166 160 158 154 148 148 147 139 136 134 135 132 122 123 122 121 119 106 101 105 118 124 115 82 52 78 65 35 17 6 5 61 177 250 261 267 246 254 267 291 290
176 175 172 165 160 158 159 160 153 143 140 141 142 139 132 131 127 126 118 105 96 85 75 98 117 122 62 85 81 43 7 347 356 3 352 338 333 333 338 11 352 359 324
183 178 171 167 165 168 168 162 153 149 149 145 142 148 147 150 140 132 126 116 108 94 45 27 71 96 83 89 97 83 354 317 332 342 346 346 343 338 336 294 217 277 296
174 166 166 168 168 166 161 155 149 146 142 146 148 156 161 165 157 147 141 133 142 140 134 344 307 343 56 79 94 149 272 294 316 329 332 334 337 335 326 311 250 212 243
160 163 167 167 167 162 153 152 149 146 147 154 153 159 187 194 172 166 160 156 155 155 187 220 257 302 337 354 353 327 333 359 356 347 340 330 326 321 313 308 296 273 254
161 165 163 161 160 156 157 158 153 153 158 167 168 180 198 207 208 190 183 178 171 170 204 219 242 275 310 327 325 328 341 352 340 326 309 299 293 293 307 314 311 307 299
164 165 161 160 159 158 160 164 165 171 174 177 183 190 193 198 212 210 200 197 191 189 211 250 260 292 299 300 315 323 312 271 258 265 279 284 297 311 310 307 307 320 322
164 164 165 165 165 167 171 178 180 192 189 186 192 187 184 205 220 202 187 195 195 199 171 86 1 325 318 314 310 305 302 307 291 279 281 293 302 307 302 305 301 309 307
163 166 167 166 167 167 165 169 198 191 196 194 188 183 200 207 200 198 203 203 199 184 152 185 234 244 254 265 276 287 287 279 270 266 271 277 285 291 297 301 297 297 298
168 169 168 169 170 171 171 174 181 209 205 201 200 197 199 199 198 197 200 201 201 176 175 216 231 239 246 253 254 256 266 270 266 264 268 273 277 283 289 294 298 297 293
166 169 170 174 175 177 180 182 180 180 191 223 228 213 205 203 201 200 193 173 195 195 208 224 235 240 243 245 248 253 264 275 271 267 268 272 273 278 287 289 290 289 290
166 169 169 169 170 172 173 174 178 183 189 195 200 222 211 202 199 199 179 180 206 221 225 233 237 237 238 240 244 247 251 259 263 262 267 269 271 273 280 283 285 289 290
169 170 166 165 165 167 170 175 182 187 193 198 208 211 184 162 186 205 202 206 216 226 227 230 236 235 235 238 240 242 250 256 262 261 263 266 268 267 273 280 284 288 287
162 167 165 165 173 177 179 184 188 189 196 206 219 209 182 186 203 208 211 216 222 228 229 228 232 236 236 235 234 237 242 253 255 256 259 263 266 270 271 274 279 282 286
156 161 167 172 174 176 179 183 183 188 195 203 215 208 190 189 203 211 218 223 225 225 222 217 228 232 230 228 229 233 241 249 254 257 261 265 268 269 272 275 280 283 285
148 151 157 163 167 172 175 178 183 188 194 200 199 196 192 201 210 215 221 225 223 225 222 216 223 236 240 235 232 226 230 240 243 242 252 265 270 273 275 277 281 285 286
148 153 157 158 159 168 176 183 185 187 190 193 196 198 200 204 209 214 217 217 214 220 219 217 220 228 235 242 245 243 243 248 251 254 251 255 266 273 276 278 280 281 283
145 149 155 161 168 174 175 177 181 184 187 190 195 198 199 202 208 214 217 217 219 227 233 233 235 238 245 247 249 249 251 255 257 259 261 261 264 271 277 279 280 284 284
144 152 158 161 166 170 173 177 182 182 185 190 192 194 198 204 212 219 220 221 226 234 239 243 242 244 250 252 253 255 258 260 262 262 264 266 264 271 277 279 281 282 285
Height
1560 1562 1563 1565 1566 1567 1568 1568 1569 1569 1570 1570 1570 1570 1569 1569 1569 1569 1569 1568 1568 1568 1567 1567 1567 1566 1566 1565 1564 1564 1564 1563 1562 1562 1561 1560 1559 1558 1557 1556 1555 1553 1552
1558 1560 1562 1564 1565 1566 1567 1568 1569 1570 1570 1571 1571 1571 1571 1571 1571 1570 1570 1570 1569 1569 1569 1568 1568 1567 1567 1566 1565 1564 1564 1563 1563 1562 1561 1560 1559 1558 1557 1555 1554 1553 1552
1557 1559 1561 1563 1565 1566 1567 1568 1569 1570 1570 1571 1571 1571 1571 1571 1571 1571 1571 1571 1571 1570 1570 1569 1569 1568 1567 1567 1566 1565 1564 1564 1563 1562 1561 1560 1559 1558 1556 1555 1554 1552 1551
1555 1557 1559 1562 1564 1565 1566 1568 1568 1569 1570 1571 1571 1572 1572 1572 1572 1572 1572 1572 1571 1571 1571 1570 1570 1569 1568 1567 1567 1566 1565 1564 1563 1562 1561 1560 1559 1557 1556 1554 1552 1551 1550
1552 1555 1558 1560 1562 1564 1566 1567 1568 1569 1570 1570 1571 1571 1572 1572 1572 1572 1572 1572 1572 1571 1571 1571 1570 1569 1569 1568 1567 1566 1565 1564 1563 1562 1560 1559 1558 1556 1555 1553 1551 1550 1549
1550 1553 1556 1559 1561 1563 1564 1566 1567 1568 1569 1570 1570 1571 1571 1572 1572 1572 1572 1572 1572 1572 1571 1571 1570 1570 1569 1568 1567 1566 1565 1564 1562 1561 1560 1558 1557 1555 1554 1552 1550 1548 1547
1547 1551 1554 1556 1559 1561 1563 1564 1565 1566 1567 1568 1569 1570 1570 1571 1571 1572 1572 1572 1572 1571 1571 1570 1570 1569 1569 1568 1567 1566 1564 1563 1562 1561 1559 1558 1556 1555 1553 1551 1549 1548 1546
1544 1548 1551 1554 1556 1559 1561 1562 1564 1565 1566 1567 1568 1569 1569 1570 1570 1571 1571 1571 1571 1571 1570 1570 1569 1569 1568 1567 1566 1565 1564 1563 1561 1560 1559 1557 1555 1554 1552 1550 1548 1546 1544
1541 1544 1548 1551 1554 1556 1558 1560 1561 1563 1564 1565 1566 1567 1568 1568 1569 1569 1570 1570 1570 1569 1569 1569 1568 1568 1567 1566 1565 1564 1563 1562 1560 1559 1557 1556 1554 1553 1551 1549 1546 1544 1541
1537 1541 1545 1548 1551 1554 1556 1558 1559 1561 1562 1563 1564 1565 1566 1567 1567 1568 1568 1568 1568 1568 1568 1568 1567 1567 1566 1565 1564 1562 1561 1560 1559 1557 1556 1554 1553 1551 1549 1547 1544 1542 1539
1534 1539 1542 1545 1548 1551 1553 1555 1557 1559 1560 1561 1562 1563 1564 1565 1566 1566 1566 1566 1566 1566 1566 1566 1566 1565 1564 1563 1562 1561 1560 1559 1557 1555 1554 1552 1550 1548 1546 1544 1542 1540 1537
1531 1535 1539 1542 1545 1548 1551 1553 1555 1556 1558 1559 1560 1561 1562 1563 1563 1564 1564 1564 1565 1565 1565 1565 1564 1564 1563 1562 1561 1559 1558 1557 1555 1553 1551 1549 1547 1546 1543 1541 1539 1537 1534
1528 1532 1536 1539 1542 1545 1548 1550 1551 1553 1555 1556 1557 1558 1559 1560 1561 1562 1562 1562 1562 1562 1563 1563 1562 1561 1560 1559 1558 1557 1556 1554 1552 1550 1548 1547 1545 1543 1540 1538 1536 1533 1531
1525 1529 1532 1536 1539 1542 1545 1547 1549 1550 1552 1553 1554 1555 1556 1558 1558 1559 1559 1560 1560 1560 1560 1560 1560 1559 1558 1557 1556 1554 1553 1551 1549 1547 1545 1544 1542 1539 1537 1534 1531 1528 1525
1522 1525 1529 1532 1535 1538 1541 1543 1545 1547 1549 1551 1552 1553 1554 1555 1556 1557 1557 1557 1557 1558 1557 1557 1556 1555 1554 1553 1552 1551 1550 1548 1546 1544 1542 1540 1538 1535 1533 1530 1527 1524 1520
1518 1522 1525 1529 1532 1535 1537 1540 1542 1544 1546 1548 1549 1550 1551 1552 1553 1553 1554 1554 1554 1554 1554 1553 1552 1551 1550 1549 1548 1547 1546 1544 1542 1540 1538 1536 1533 1531 1528 1526 1523 1520 1516
1515 1519 1522 1525 1528 1531 1533 1536 1538 1541 1542 1544 1545 1546 1547 1548 1549 1549 1550 1550 1551 1550 1549 1548 1548 1547 1546 1545 1544 1543 1541 1540 1538 1536 1534 1531 1529 1526 1524 1521 1518 1515 1511
1513 1516 1519 1522 1524 1527 1530 1532 1534 1536 1538 1539 1541 1542 1543 1544 1545 1545 1546 1546 1546 1545 1544 1544 1543 1542 1542 1541 1539 1538 1536 1535 1533 1531 1529 1526 1524 1521 1518 1516 1513 1509 1506
1510 1512 1515 1518 1521 1524 1526 1528 1530 1532 1534 1535 1537 1538 1539 1540 1541 1541 1541 1541 1540 1540 1539 1539 1538 1538 1537 1536 1535 1533 1532 1530 1528 1526 1524 1521 1519 1516 1513 1510 1507 1504 1500
1507 1510 1512 1515 1517 1520 1522 1524 1526 1528 1529 1531 1532 1533 1535 1535 1535 1536 1536 1535 1535 1535 1534 1534 1533 1533 1532 1531 1529 1528 1526 1524 1522 1520 1518 1516 1513 1511 1508 1505 1501 1498 1494
1503 1506 1509 1511 1513 1515 1518 1520 1521 1523 1525 1526 1527 1529 1530 1530 1530 1530 1530 1530 1530 1529 1529 1528 1528 1527 1526 1525 1524 1522 1521 1519 1517 1515 1512 1510 1507 1504 1501 1498 1495 1491 1487
1500 1502 1504 1507 1509 1511 1513 1515 1517 1519 1520 1521 1522 1524 1524 1525 1525 1525 1525 1524 1524 1524 1523 1523 1522 1521 1520 1519 1518 1516 1514 1512 1511 1509 1506 1504 1501 1498 1495 1492 1488 1485 1481
1497 1499 1501 1503 1505 1507 1509 1511 1513 1514 1515 1516 1518 1519 1519 1519 1519 1519 1519 1519 1518 1518 1517 1517 1516 1515 1514 1513 1511 1510 1508 1506 1505 1502 1500 1497 1494 1491 1488 1485 1481 1478 1474
1493 1496 1498 1500 1501 1503 1505 1506 1508 1509 1510 1512 1512 1513 1513 1514 1514 1513 1513 1513 1513 1512 1512 1511 1510 1508 1507 1506 1505 1503 1502 1500 1498 1496 1493 1490 1487 1484 1481 1478 1474 1471 1467
1490 1492 1494 1496 1497 1499 1501 1502 1503 1504 1506 1507 1507 1508 1508 1508 1508 1508 1508 1507 1507 1506 1505 1505 1503 1502 1501 1500 1498 1496 1495 1493 1491 1489 1486 1483 1480 1477 1474 1470 1467 1463 1460
1487 1488 1490 1492 1494 1495 1496 1498 1499 1500 1501 1502 1502 1503 1503 1503 1503 1502 1502 1502 1501 1500 1499 1498 1497 1496 1494 1493 1491 1489 1488 1486 1484 1481 1479 1476 1473 1470 1466 1463 1459 1455 1452